sat.trackr.live / text

‹ back to catalog

STARLINK-32831

NORAD 62860 · 2025-022G

PAYLOAD ACTIVE UNKNOWN

§ Identity

Operator
Country
US
Launch date
2025-02-01
Launch site
AFWTR
Launch vehicle
Mass (kg)
RCS (m²)

Purposes: comms

External: N2YO · Heavens-Above · Gunter

§ Orbital elements

Epoch: 2026-09-21T09:47:43.137888Z

Period
93.85 min
Inclination
53.1607°
Eccentricity
0.0001044
Mean motion
15.34393347 rev/d
Perigee alt
462.0 km
Apogee alt
463.4 km
Semi-major
6,840.9 km
B*
1.7336e-4
RAAN
297.1079°
Arg perigee
86.6079°
Mean anomaly
273.5043°
Rev number
9,190

§ Raw data

STARLINK-328311 62860U 25022G   26264.40813817  .00005484  00000+0  17336-3 0  99982 62860  53.1607 297.1079 0001044  86.6079 273.5043 15.34393347 91901

JSON: /api/v1/satellites/62860 · /tle

For live sub-satellite position, see the globe view (requires WebGL).

§ Visibility from observer

Set your observer location to see the next 7 days of passes ≥ 10°. The values pass through the URL so the page stays shareable.

No JS? Fill the form by hand. The geolocation button needs JavaScript.